Hourly Data Report for October 26, 2015

All times are specified in Local Standard Time (LST). Add 1 hour to adjust for Daylight Saving Time where and when it is observed.

ARVIAT A
NUNAVUT

61°05'38.000" N
94°04'18.000" W
10.40 m
2300427
71174
YEK

Download Data

Hourly Data (October 2015)
Hourly Data Report for October 26, 2015
Temp Definition
°C
Dew Point Temp Definition
°C
Rel Hum Definition
%
Wind Dir Definition
10's deg

Wind Spd Definition
km/h
Visibility Definition
km
Stn Press Definition
kPa
Hmdx Definition


Wind Chill Definition


Weather Definition


TIME
00:00 Legend Double Dagger -12.2 -14.7 82 29 32 16.1 101.57   -23 LegendNANA
01:00 Legend Double Dagger -12.7 -15.2 82 29 28 16.1 101.57   -23 LegendNANA
02:00 Legend Double Dagger -13.2 -15.5 83 29 28 16.1 101.54   -23 LegendNANA
03:00 Legend Double Dagger -13.8 -16.0 84 27 30 16.1 101.53   -24 LegendNANA
04:00 Legend Double Dagger -14.0 -16.2 84 29 37 16.1 101.47   -26 LegendNANA
05:00 Legend Double Dagger -13.7 -16.0 83 29 37 16.1 101.46   -25 LegendNANA
06:00 Legend Double Dagger -13.9 -16.1 84 28 39 16.1 101.47   -26 LegendNANA
07:00 Legend Double Dagger -13.9 -16.1 84 29 37 16.1 101.49   -26 LegendNANA
08:00 Legend Double Dagger -14.3 -16.4 84 30 41 16.1 101.47   -27 LegendNANA
09:00 Legend Double Dagger -14.2 -16.5 83 31 35 16.1 101.51   -26 LegendNANA
10:00 Legend Double Dagger -14.0 -16.4 82 32 35 16.1 101.58   -25 LegendNANA
11:00 Legend Double Dagger -13.8 -16.4 81 32 39 16.1 101.61   -26 LegendNANA
12:00 Legend Double Dagger -13.5 -16.1 81 31 39 16.1 101.65   -25 LegendNANA
13:00 Legend Double Dagger -13.0 -15.8 80 32 35 16.1 101.69   -24 LegendNANA
14:00 Legend Double Dagger -12.6 -15.6 79 31 41 16.1 101.70   -24 LegendNANA
15:00 Legend Double Dagger -12.6 -15.7 78 30 34 16.1 101.77   -23 LegendNANA
16:00 Legend Double Dagger -12.7 -15.9 77 31 35 16.1 101.80   -24 Snow
17:00 Legend Double Dagger -13.3 -16.2 79 30 37 16.1 101.82   -25 LegendNANA
18:00 Legend Double Dagger -14.1 -16.8 80 30 35 16.1 101.83   -26 LegendNANA
19:00 Legend Double Dagger -14.2 -17.0 79 30 39 16.1 101.83   -26 LegendNANA
20:00 Legend Double Dagger -14.5 -17.4 79 30 34 16.1 101.90   -26 LegendNANA
21:00 Legend Double Dagger -14.9 -17.6 80 30 34 16.1 101.88   -27 LegendNANA
22:00 Legend Double Dagger -15.3 -17.9 81 30 28 16.1 101.96   -26 LegendNANA
23:00 Legend Double Dagger -15.3 -17.6 83 30 39 16.1 101.93   -28 LegendNANA

Notes on Data Quality.

Legend

  • E = Estimated
  • M = Missing
  • NA = Not Available
  • ‡ = Partner data that is not subject to review by the National Climate Archives
Date modified: